Weather History for Porterville, CA

Change the Weather History Date:

Thursday, October 4, 2012

  Actual Average Record
Temperature  
Mean Temperature 74 °F -  
Max Temperature 87 °F 86 °F 100 °F (1980)
Min Temperature 60 °F 54 °F 40 °F (1969)
Cooling Degree Days 8    
Growing Degree Days 24 (Base 50)    
Moisture  
Dew Point 43 °F    
Average Humidity 35    
Maximum Humidity 59    
Minimum Humidity 22    
Precipitation  
Precipitation 0.00 in - - ()
Sea Level Pressure  
Sea Level Pressure 30.03 in    
Wind  
Wind Speed 6 mph (SSW)    
Max Wind Speed 9 mph    
Max Gust Speed -    
Visibility 10 miles    
Events      
Averages and records for this station are not official NWS values.
T = Trace of Precipitation, MM = Missing Value Source: NWS Daily Summary

Daily Weather History Graph

Daily Weather History Graph

Search for Another Location

Airport:

Trip Planner

Search our weather history database for the weather conditions in past years. The results will help you decide how hot, cold, wet, or windy it might be!

Date:

Astronomy

Oct. 04, 2012 Rise Set
Actual Time 6:54 AM PDT 6:34 PM PDT
Civil Twilight 6:28 AM PDT 7:00 PM PDT
Nautical Twilight 5:58 AM PDT 7:29 PM PDT
Astronomical Twilight 5:29 AM PDT 7:59 PM PDT
Moon 9:22 PM PDT (10/4) 11:07 AM PDT (10/4)
Length of Visible Light 12h 31m
Length of Day
11h 40m
Waning Gibbous, 81% of the Moon is Illuminated
Oct 4
Waning Gibbous
Oct 8
Last Quarter
Oct 15
New
Oct 21
First Quarter
Oct 29
Full

Hourly Weather History & Observations

Time (PDT) Temp. Dew Point Humidity Pressure Visibility Wind Dir Wind Speed Gust Speed Precip Events Conditions
12:15 AM 69.8 °F 37.4 °F 31% 29.97 in 10.0 mi South 8.1 mph - N/A   Unknown
12:35 AM 66.2 °F 39.2 °F 37% 29.97 in 10.0 mi SSW 6.9 mph - N/A   Unknown
12:55 AM 66.2 °F 39.2 °F 37% 29.98 in 10.0 mi SSE 6.9 mph - N/A   Unknown
1:15 AM 66.2 °F 37.4 °F 35% 29.98 in 10.0 mi SSE 6.9 mph - N/A   Unknown
1:35 AM 64.4 °F 37.4 °F 37% 29.98 in 10.0 mi SE 8.1 mph - N/A   Unknown
1:55 AM 64.4 °F 37.4 °F 37% 29.99 in 10.0 mi SSE 6.9 mph - N/A   Unknown
2:15 AM 64.4 °F 39.2 °F 40% 29.99 in 10.0 mi SSE 5.8 mph - N/A   Unknown
2:35 AM 66.2 °F 37.4 °F 35% 29.99 in 10.0 mi SSE 8.1 mph - N/A   Unknown
2:55 AM 66.2 °F 37.4 °F 35% 29.99 in 10.0 mi SSE 5.8 mph - N/A   Unknown
3:15 AM 64.4 °F 37.4 °F 37% 29.99 in 10.0 mi SSE 4.6 mph - N/A   Unknown
3:35 AM 64.4 °F 39.2 °F 40% 29.99 in 10.0 mi South 5.8 mph - N/A   Unknown
3:55 AM 64.4 °F 39.2 °F 40% 29.99 in 10.0 mi ESE 5.8 mph - N/A   Unknown
4:15 AM 62.6 °F 39.2 °F 42% 29.99 in 10.0 mi ESE 5.8 mph - N/A   Unknown
4:35 AM 66.2 °F 39.2 °F 37% 29.99 in 10.0 mi Calm Calm - N/A   Unknown
4:55 AM 64.4 °F 39.2 °F 40% 29.99 in 10.0 mi SE 5.8 mph - N/A   Unknown
5:15 AM 62.6 °F 39.2 °F 42% 29.99 in 10.0 mi SE 8.1 mph - N/A   Unknown
5:35 AM 60.8 °F 39.2 °F 45% 30.00 in 10.0 mi SE 5.8 mph - N/A   Unknown
5:55 AM 60.8 °F 39.2 °F 45% 30.01 in 10.0 mi SSE 4.6 mph - N/A   Unknown
6:15 AM 62.6 °F 39.2 °F 42% 30.02 in 10.0 mi SE 6.9 mph - N/A   Unknown
6:35 AM 62.6 °F 39.2 °F 42% 30.03 in 10.0 mi SSE 3.5 mph - N/A   Unknown
6:55 AM 62.6 °F 37.4 °F 39% 30.03 in 10.0 mi South 6.9 mph - N/A   Unknown
7:15 AM 66.2 °F 37.4 °F 35% 30.03 in 10.0 mi South 9.2 mph - N/A   Unknown
7:35 AM 64.4 °F 35.6 °F 34% 30.04 in 10.0 mi SE 4.6 mph - N/A   Unknown
7:55 AM 64.4 °F 39.2 °F 40% 30.04 in 10.0 mi SE 5.8 mph - N/A   Unknown
8:15 AM 69.8 °F 39.2 °F 33% 30.05 in 10.0 mi South 6.9 mph - N/A   Unknown
8:35 AM 71.6 °F 39.2 °F 31% 30.06 in 10.0 mi South 4.6 mph - N/A   Unknown
8:55 AM 71.6 °F 37.4 °F 29% 30.07 in 10.0 mi SSW 3.5 mph - N/A   Unknown
9:15 AM 73.4 °F 37.4 °F 27% 30.07 in 10.0 mi South 4.6 mph - N/A   Unknown
9:35 AM 75.2 °F 39.2 °F 27% 30.08 in 10.0 mi SSE 6.9 mph - N/A   Unknown
9:55 AM 75.2 °F 41.0 °F 29% 30.09 in 10.0 mi SSE 5.8 mph - N/A   Unknown
10:15 AM 78.8 °F 42.8 °F 28% 30.09 in 10.0 mi South 5.8 mph - N/A   Unknown
10:35 AM 78.8 °F 41.0 °F 26% 30.09 in 10.0 mi SSW 4.6 mph - N/A   Unknown
10:55 AM 80.6 °F 42.8 °F 26% 30.09 in 10.0 mi SSW 5.8 mph - N/A   Unknown
11:35 AM 80.6 °F 42.8 °F 26% 30.09 in 10.0 mi SW 5.8 mph - N/A   Unknown
11:55 AM 80.6 °F 42.8 °F 26% 30.09 in 10.0 mi West 5.8 mph - N/A   Unknown
12:15 PM 82.4 °F 44.6 °F 26% 30.09 in 10.0 mi SW 5.8 mph - N/A   Unknown
12:35 PM 82.4 °F 42.8 °F 25% 30.08 in 10.0 mi Calm Calm - N/A   Unknown
12:55 PM 82.4 °F 42.8 °F 25% 30.07 in 10.0 mi West 6.9 mph - N/A   Unknown
1:15 PM 84.2 °F 44.6 °F 25% 30.07 in 10.0 mi West 5.8 mph - N/A   Unknown
1:35 PM 84.2 °F 44.6 °F 25% 30.06 in 10.0 mi West 4.6 mph - N/A   Unknown
1:55 PM 84.2 °F 44.6 °F 25% 30.05 in 10.0 mi West 5.8 mph - N/A   Unknown
2:15 PM 86.0 °F 44.6 °F 23% 30.04 in 10.0 mi WSW 5.8 mph - N/A   Unknown
2:35 PM 86.0 °F 46.4 °F 25% 30.03 in 10.0 mi SW 5.8 mph - N/A   Unknown
2:55 PM 87.8 °F 46.4 °F 24% 30.03 in 10.0 mi WSW 5.8 mph - N/A   Unknown
3:15 PM 87.8 °F 46.4 °F 24% 30.02 in 10.0 mi WNW 6.9 mph - N/A   Unknown
3:35 PM 87.8 °F 46.4 °F 24% 30.02 in 10.0 mi West 4.6 mph - N/A   Unknown
3:55 PM 87.8 °F 46.4 °F 24% 30.02 in 10.0 mi WNW 6.9 mph - N/A   Unknown
4:15 PM 87.8 °F 46.4 °F 24% 30.01 in 10.0 mi NW 8.1 mph - N/A   Unknown
4:35 PM 87.8 °F 46.4 °F 24% 30.01 in 10.0 mi WNW 6.9 mph - N/A   Unknown
4:55 PM 87.8 °F 44.6 °F 22% 30.01 in 10.0 mi WNW 5.8 mph - N/A   Unknown
5:15 PM 87.8 °F 44.6 °F 22% 30.01 in 10.0 mi WNW 6.9 mph - N/A   Unknown
5:35 PM 87.8 °F 44.6 °F 22% 30.01 in 10.0 mi NW 5.8 mph - N/A   Unknown
5:55 PM 87.8 °F 46.4 °F 24% 30.01 in 10.0 mi NW 4.6 mph - N/A   Unknown
6:15 PM 84.2 °F 46.4 °F 27% 30.01 in 10.0 mi NNW 3.5 mph - N/A   Unknown
6:35 PM 82.4 °F 46.4 °F 28% 30.01 in 8.0 mi NNW 3.5 mph - N/A   Unknown
6:55 PM 80.6 °F 48.2 °F 32% 30.01 in 9.0 mi NW 4.6 mph - N/A   Unknown
7:15 PM 78.8 °F 50.0 °F 36% 30.02 in 8.0 mi NNW 5.8 mph - N/A   Unknown
7:35 PM 77.0 °F 48.2 °F 36% 30.02 in 10.0 mi North 5.8 mph - N/A   Unknown
7:55 PM 75.2 °F 50.0 °F 41% 30.02 in 10.0 mi North 4.6 mph - N/A   Unknown
8:15 PM 75.2 °F 50.0 °F 41% 30.03 in 10.0 mi North 5.8 mph - N/A   Unknown
8:35 PM 75.2 °F 48.2 °F 38% 30.03 in 10.0 mi North 5.8 mph - N/A   Unknown
8:55 PM 73.4 °F 48.2 °F 41% 30.04 in 10.0 mi North 5.8 mph - N/A   Unknown
9:15 PM 73.4 °F 48.2 °F 41% 30.04 in 10.0 mi North 4.6 mph - N/A   Unknown
9:35 PM 66.2 °F 50.0 °F 56% 30.05 in 10.0 mi Calm Calm - N/A   Unknown
9:55 PM 66.2 °F 50.0 °F 56% 30.05 in 10.0 mi Calm Calm - N/A   Unknown
10:15 PM 66.2 °F 46.4 °F 49% 30.06 in 10.0 mi SSW 3.5 mph - N/A   Unknown
10:35 PM 64.4 °F 46.4 °F 52% 30.06 in 10.0 mi South 3.5 mph - N/A   Unknown
10:55 PM 64.4 °F 48.2 °F 56% 30.06 in 10.0 mi Calm Calm - N/A   Unknown
11:15 PM 66.2 °F 46.4 °F 49% 30.07 in 10.0 mi Calm Calm - N/A   Unknown
11:35 PM 64.4 °F 50.0 °F 59% 30.07 in 10.0 mi Calm Calm - N/A   Unknown
11:55 PM 62.6 °F 48.2 °F 59% 30.07 in 10.0 mi West 5.8 mph - N/A   Unknown